Regional Weather Roundup
Issued by NWS

Home | Current Version | Previous Version | Text Only | Print | Product List | Glossary Off
Versions: 1 2 3 4 5 6 7 8 9 10 11 12 13 14 15 16 17 18 19 20 21 22 23 24 25 26 27 28 29 30 31 32 33 34 35 36 37 38 39 40 41 42 43 44 45 46 47 48 49 50

000
ASUS43 KFSD 030102
RWRSD

WEATHER ROUNDUP FOR SOUTH DAKOTA
NATIONAL WEATHER SERVICE SIOUX FALLS SD
800 PM CDT WED SEP 02 2015

NOTE: "FAIR" INDICATES FEW OR NO CLOUDS BELOW 12,000 FEET WITH NO
SIGNIFICANT WEATHER AND/OR OBSTRUCTIONS TO VISIBILITY.


SDZ001>005-009-010-012>017-030200-
NORTHWEST AND NORTH CENTRAL SOUTH DAKOTA

CITY           SKY/WX    TMP DP  RH WIND       PRES   REMARKS
BUFFALO          N/A     87  51  28 SE9       29.68F
FAITH            N/A     89  55  31 SE8       29.74R
MOBRIDGE       CLEAR     84  73  69 SE13      29.71R
$$

SDZ012>016-024>037-041>051-057-063-072>074-030200-
SOUTHWEST AND SOUTH CENTRAL SOUTH DAKOTA

CITY           SKY/WX    TMP DP  RH WIND       PRES   REMARKS
RAPID CTY ARPT CLEAR     86  64  47 NE6       29.77R
PIERRE         CLEAR     86  69  56 E8        29.69S
CUSTER         CLEAR     83  29  14 SW8       29.98R
ELLSWORTH AFB  PTCLDY    91  51  25 NE7       29.77R
PHILIP         CLEAR     85  60  42 S8        29.71R
PINE RIDGE     CLEAR     86  49  27 S7        29.82R
WINNER         FAIR      89  58  34 S10       29.74R
$$

SDZ004>011-016>023-039-040-030200-
NORTHEAST SOUTH DAKOTA

CITY           SKY/WX    TMP DP  RH WIND       PRES   REMARKS
ABERDEEN       CLEAR     82  73  74 SE7       29.75R
WATERTOWN      PTCLDY    82  72  71 SE9       29.82R
BROOKINGS      PTCLDY    81  73  78 SE9       29.84R
$$

SDZ017-020-022-023-036>040-048>070-030200-
SOUTHEAST SOUTH DAKOTA

CITY           SKY/WX    TMP DP  RH WIND       PRES   REMARKS
SIOUX FALLS    PTCLDY    81  72  74 S12       29.82R
HURON          CLEAR     84  74  71 SE6       29.74R
CHAMBERLAIN    CLEAR     82  71  69 SE8       29.73S
MITCHELL       CLEAR     83  75  77 SE8       29.76R
YANKTON        CLEAR     81  72  74 SE7       29.78S
$$

ABBREVIATIONS USED IN REMARKS
   TC - TEMPERATURE IN CELSIUS
  WCI - WIND CHILL INDEX
   HX - HEAT INDEX
  VSB - VISIBILITY




USA.gov is the U.S. government's official web portal to all federal, state and local government web resources and services.